Year,Month,Day,Hour,Minute,Value (Times are PST for insolation in W/m^2)
2008,12,04,00,00,0.00
2008,12,04,00,01,0.00
2008,12,04,00,02,0.00
2008,12,04,00,03,0.00
2008,12,04,00,04,0.00
2008,12,04,00,05,0.00
2008,12,04,00,06,0.00
2008,12,04,00,07,0.00
2008,12,04,00,08,0.00
2008,12,04,00,09,0.00
2008,12,04,00,10,0.00
2008,12,04,00,11,0.00
2008,12,04,00,12,0.00
2008,12,04,00,13,0.00
2008,12,04,00,14,0.00
2008,12,04,00,15,0.00
2008,12,04,00,16,0.00
2008,12,04,00,17,0.00
2008,12,04,00,18,0.00
2008,12,04,00,19,0.00
2008,12,04,00,20,0.00
2008,12,04,00,21,0.00
2008,12,04,00,22,0.00
2008,12,04,00,23,0.00
2008,12,04,00,24,0.00
2008,12,04,00,25,0.00
2008,12,04,00,26,0.00
2008,12,04,00,27,0.00
2008,12,04,00,28,0.00
2008,12,04,00,29,0.00
2008,12,04,00,30,0.00
2008,12,04,00,31,0.00
2008,12,04,00,32,0.00
2008,12,04,00,33,0.00
2008,12,04,00,34,0.00
2008,12,04,00,35,0.00
2008,12,04,00,36,0.00
2008,12,04,00,37,0.00
2008,12,04,00,38,0.00
2008,12,04,00,39,0.00
2008,12,04,00,40,0.00
2008,12,04,00,41,0.00
2008,12,04,00,42,0.00
2008,12,04,00,43,0.00
2008,12,04,00,44,0.00
2008,12,04,00,45,0.00
2008,12,04,00,46,0.00
2008,12,04,00,47,0.00
2008,12,04,00,48,0.00
2008,12,04,00,49,0.00
2008,12,04,00,50,0.00
2008,12,04,00,51,0.00
2008,12,04,00,52,0.00
2008,12,04,00,53,0.00
2008,12,04,00,54,0.00
2008,12,04,00,55,0.00
2008,12,04,00,56,0.00
2008,12,04,00,57,0.00
2008,12,04,00,58,0.00
2008,12,04,00,59,0.00
2008,12,04,01,00,0.00
2008,12,04,01,01,0.00
2008,12,04,01,02,0.00
2008,12,04,01,03,0.00
2008,12,04,01,04,0.00
2008,12,04,01,05,0.00
2008,12,04,01,06,0.00
2008,12,04,01,07,0.00
2008,12,04,01,08,0.00
2008,12,04,01,09,0.00
2008,12,04,01,10,0.00
2008,12,04,01,11,0.00
2008,12,04,01,12,0.00
2008,12,04,01,13,0.00
2008,12,04,01,14,0.00
2008,12,04,01,15,0.00
2008,12,04,01,16,0.00
2008,12,04,01,17,0.00
2008,12,04,01,18,0.00
2008,12,04,01,19,0.00
2008,12,04,01,20,0.00
2008,12,04,01,21,0.00
2008,12,04,01,22,0.00
2008,12,04,01,23,0.00
2008,12,04,01,24,0.00
2008,12,04,01,25,0.00
2008,12,04,01,26,0.00
2008,12,04,01,27,0.00
2008,12,04,01,28,0.00
2008,12,04,01,29,0.00
2008,12,04,01,30,0.00
2008,12,04,01,31,0.00
2008,12,04,01,32,0.00
2008,12,04,01,33,0.00
2008,12,04,01,34,0.00
2008,12,04,01,35,0.00
2008,12,04,01,36,0.00
2008,12,04,01,37,0.00
2008,12,04,01,38,0.00
2008,12,04,01,39,0.00
2008,12,04,01,40,0.00
2008,12,04,01,41,0.00
2008,12,04,01,42,0.00
2008,12,04,01,43,0.00
2008,12,04,01,44,0.00
2008,12,04,01,45,0.00
2008,12,04,01,46,0.00
2008,12,04,01,47,0.00
2008,12,04,01,48,0.00
2008,12,04,01,49,0.00
2008,12,04,01,50,0.00
2008,12,04,01,51,0.00
2008,12,04,01,52,0.00
2008,12,04,01,53,0.00
2008,12,04,01,54,0.00
2008,12,04,01,55,0.00
2008,12,04,01,56,0.00
2008,12,04,01,57,0.00
2008,12,04,01,58,0.00
2008,12,04,01,59,0.00
2008,12,04,02,00,0.00
2008,12,04,02,01,0.00
2008,12,04,02,02,0.00
2008,12,04,02,03,0.00
2008,12,04,02,04,0.00
2008,12,04,02,05,0.00
2008,12,04,02,06,0.00
2008,12,04,02,07,0.00
2008,12,04,02,08,0.00
2008,12,04,02,09,0.00
2008,12,04,02,10,0.00
2008,12,04,02,11,0.00
2008,12,04,02,12,0.00
2008,12,04,02,13,0.00
2008,12,04,02,14,0.00
2008,12,04,02,15,0.00
2008,12,04,02,16,0.00
2008,12,04,02,17,0.00
2008,12,04,02,18,0.00
2008,12,04,02,19,0.00
2008,12,04,02,20,0.00
2008,12,04,02,21,0.00
2008,12,04,02,22,0.00
2008,12,04,02,23,0.00
2008,12,04,02,24,0.00
2008,12,04,02,25,0.00
2008,12,04,02,26,0.00
2008,12,04,02,27,0.00
2008,12,04,02,28,0.00
2008,12,04,02,29,0.00
2008,12,04,02,30,0.00
2008,12,04,02,31,0.00
2008,12,04,02,32,0.00
2008,12,04,02,33,0.00
2008,12,04,02,34,0.00
2008,12,04,02,35,0.00
2008,12,04,02,36,0.00
2008,12,04,02,37,0.00
2008,12,04,02,38,0.00
2008,12,04,02,39,0.00
2008,12,04,02,40,0.00
2008,12,04,02,41,0.00
2008,12,04,02,42,0.00
2008,12,04,02,43,0.00
2008,12,04,02,44,0.00
2008,12,04,02,45,0.00
2008,12,04,02,46,0.00
2008,12,04,02,47,0.00
2008,12,04,02,48,0.00
2008,12,04,02,49,0.00
2008,12,04,02,50,0.00
2008,12,04,02,51,0.00
2008,12,04,02,52,0.00
2008,12,04,02,53,0.00
2008,12,04,02,54,0.00
2008,12,04,02,55,0.00
2008,12,04,02,56,0.00
2008,12,04,02,57,0.00
2008,12,04,02,58,0.00
2008,12,04,02,59,0.00
2008,12,04,03,00,0.00
2008,12,04,03,01,0.00
2008,12,04,03,02,0.00
2008,12,04,03,03,0.00
2008,12,04,03,04,0.00
2008,12,04,03,05,0.00
2008,12,04,03,06,0.00
2008,12,04,03,07,0.00
2008,12,04,03,08,0.00
2008,12,04,03,09,0.00
2008,12,04,03,10,0.00
2008,12,04,03,11,0.00
2008,12,04,03,12,0.00
2008,12,04,03,13,0.00
2008,12,04,03,14,0.00
2008,12,04,03,15,0.00
2008,12,04,03,16,0.00
2008,12,04,03,17,0.00
2008,12,04,03,18,0.00
2008,12,04,03,19,0.00
2008,12,04,03,20,0.00
2008,12,04,03,21,0.00
2008,12,04,03,22,0.00
2008,12,04,03,23,0.00
2008,12,04,03,24,0.00
2008,12,04,03,25,0.00
2008,12,04,03,26,0.00
2008,12,04,03,27,0.00
2008,12,04,03,28,0.00
2008,12,04,03,29,0.00
2008,12,04,03,30,0.00
2008,12,04,03,31,0.00
2008,12,04,03,32,0.00
2008,12,04,03,33,0.00
2008,12,04,03,34,0.00
2008,12,04,03,35,0.00
2008,12,04,03,36,0.00
2008,12,04,03,37,0.00
2008,12,04,03,38,0.00
2008,12,04,03,39,0.00
2008,12,04,03,40,0.00
2008,12,04,03,41,0.00
2008,12,04,03,42,0.00
2008,12,04,03,43,0.00
2008,12,04,03,44,0.00
2008,12,04,03,45,0.00
2008,12,04,03,46,0.00
2008,12,04,03,47,0.00
2008,12,04,03,48,0.00
2008,12,04,03,49,0.00
2008,12,04,03,50,0.00
2008,12,04,03,51,0.00
2008,12,04,03,52,0.00
2008,12,04,03,53,0.00
2008,12,04,03,54,0.00
2008,12,04,03,55,0.00
2008,12,04,03,56,0.00
2008,12,04,03,57,0.00
2008,12,04,03,58,0.00
2008,12,04,03,59,0.00
2008,12,04,04,00,0.00
2008,12,04,04,01,0.00
2008,12,04,04,02,0.00
2008,12,04,04,03,0.00
2008,12,04,04,04,0.00
2008,12,04,04,05,0.00
2008,12,04,04,06,0.00
2008,12,04,04,07,0.00
2008,12,04,04,08,0.00
2008,12,04,04,09,0.00
2008,12,04,04,10,0.00
2008,12,04,04,11,0.00
2008,12,04,04,12,0.00
2008,12,04,04,13,0.00
2008,12,04,04,14,0.00
2008,12,04,04,15,0.00
2008,12,04,04,16,0.00
2008,12,04,04,17,0.00
2008,12,04,04,18,0.00
2008,12,04,04,19,0.00
2008,12,04,04,20,0.00
2008,12,04,04,21,0.00
2008,12,04,04,22,0.00
2008,12,04,04,23,0.00
2008,12,04,04,24,0.00
2008,12,04,04,25,0.00
2008,12,04,04,26,0.00
2008,12,04,04,27,0.00
2008,12,04,04,28,0.00
2008,12,04,04,29,0.00
2008,12,04,04,30,0.00
2008,12,04,04,31,0.00
2008,12,04,04,32,0.00
2008,12,04,04,33,0.00
2008,12,04,04,34,0.00
2008,12,04,04,35,0.00
2008,12,04,04,36,0.00
2008,12,04,04,37,0.00
2008,12,04,04,38,0.00
2008,12,04,04,39,0.00
2008,12,04,04,40,0.00
2008,12,04,04,41,0.00
2008,12,04,04,42,0.00
2008,12,04,04,43,0.00
2008,12,04,04,44,0.00
2008,12,04,04,45,0.00
2008,12,04,04,46,0.00
2008,12,04,04,47,0.00
2008,12,04,04,48,0.00
2008,12,04,04,49,0.00
2008,12,04,04,50,0.00
2008,12,04,04,51,0.00
2008,12,04,04,52,0.00
2008,12,04,04,53,0.00
2008,12,04,04,54,0.00
2008,12,04,04,55,0.00
2008,12,04,04,56,0.00
2008,12,04,04,57,0.00
2008,12,04,04,58,0.00
2008,12,04,04,59,0.00
2008,12,04,05,00,0.00
2008,12,04,05,01,0.00
2008,12,04,05,02,0.00
2008,12,04,05,03,0.00
2008,12,04,05,04,0.00
2008,12,04,05,05,0.00
2008,12,04,05,06,0.00
2008,12,04,05,07,0.00
2008,12,04,05,08,0.00
2008,12,04,05,09,0.00
2008,12,04,05,10,0.00
2008,12,04,05,11,0.00
2008,12,04,05,12,0.00
2008,12,04,05,13,0.00
2008,12,04,05,14,0.00
2008,12,04,05,15,0.00
2008,12,04,05,16,0.00
2008,12,04,05,17,0.00
2008,12,04,05,18,0.00
2008,12,04,05,19,0.00
2008,12,04,05,20,0.00
2008,12,04,05,21,0.00
2008,12,04,05,22,0.00
2008,12,04,05,23,0.00
2008,12,04,05,24,0.00
2008,12,04,05,25,0.00
2008,12,04,05,26,0.00
2008,12,04,05,27,0.00
2008,12,04,05,28,0.00
2008,12,04,05,29,0.00
2008,12,04,05,30,0.00
2008,12,04,05,31,0.00
2008,12,04,05,32,0.00
2008,12,04,05,33,0.00
2008,12,04,05,34,0.00
2008,12,04,05,35,0.00
2008,12,04,05,36,0.00
2008,12,04,05,37,0.00
2008,12,04,05,38,0.00
2008,12,04,05,39,0.00
2008,12,04,05,40,0.00
2008,12,04,05,41,0.00
2008,12,04,05,42,0.00
2008,12,04,05,43,0.00
2008,12,04,05,44,0.00
2008,12,04,05,45,0.00
2008,12,04,05,46,0.00
2008,12,04,05,47,0.00
2008,12,04,05,48,0.00
2008,12,04,05,49,0.00
2008,12,04,05,50,0.00
2008,12,04,05,51,0.00
2008,12,04,05,52,0.00
2008,12,04,05,53,0.00
2008,12,04,05,54,0.00
2008,12,04,05,55,0.00
2008,12,04,05,56,0.00
2008,12,04,05,57,0.00
2008,12,04,05,58,0.00
2008,12,04,05,59,0.00
2008,12,04,06,00,0.00
2008,12,04,06,01,0.00
2008,12,04,06,02,0.00
2008,12,04,06,03,0.00
2008,12,04,06,04,0.00
2008,12,04,06,05,0.00
2008,12,04,06,06,0.00
2008,12,04,06,07,0.00
2008,12,04,06,08,0.00
2008,12,04,06,09,0.00
2008,12,04,06,10,0.00
2008,12,04,06,11,0.00
2008,12,04,06,12,0.00
2008,12,04,06,13,0.00
2008,12,04,06,14,0.00
2008,12,04,06,15,0.00
2008,12,04,06,16,0.00
2008,12,04,06,17,0.00
2008,12,04,06,18,0.00
2008,12,04,06,19,0.00
2008,12,04,06,20,0.00
2008,12,04,06,21,0.00
2008,12,04,06,22,0.00
2008,12,04,06,23,0.00
2008,12,04,06,24,0.00
2008,12,04,06,25,0.00
2008,12,04,06,26,0.00
2008,12,04,06,27,0.00
2008,12,04,06,28,0.00
2008,12,04,06,29,0.00
2008,12,04,06,30,0.00
2008,12,04,06,31,0.00
2008,12,04,06,32,0.00
2008,12,04,06,33,0.00
2008,12,04,06,34,0.00
2008,12,04,06,35,0.00
2008,12,04,06,36,0.00
2008,12,04,06,37,0.00
2008,12,04,06,38,0.00
2008,12,04,06,39,0.00
2008,12,04,06,40,0.00
2008,12,04,06,41,0.00
2008,12,04,06,42,0.00
2008,12,04,06,43,0.00
2008,12,04,06,44,0.00
2008,12,04,06,45,0.00
2008,12,04,06,46,0.00
2008,12,04,06,47,0.00
2008,12,04,06,48,0.00
2008,12,04,06,49,0.00
2008,12,04,06,50,0.00
2008,12,04,06,51,0.00
2008,12,04,06,52,0.00
2008,12,04,06,53,0.00
2008,12,04,06,54,0.00
2008,12,04,06,55,0.00
2008,12,04,06,56,0.00
2008,12,04,06,57,0.00
2008,12,04,06,58,0.00
2008,12,04,06,59,0.00
2008,12,04,07,00,0.00
2008,12,04,07,01,0.00
2008,12,04,07,02,0.00
2008,12,04,07,03,0.00
2008,12,04,07,04,0.00
2008,12,04,07,05,0.00
2008,12,04,07,06,0.00
2008,12,04,07,07,0.00
2008,12,04,07,08,0.00
2008,12,04,07,09,0.00
2008,12,04,07,10,0.00
2008,12,04,07,11,0.00
2008,12,04,07,12,0.00
2008,12,04,07,13,0.00
2008,12,04,07,14,0.00
2008,12,04,07,15,0.00
2008,12,04,07,16,0.00
2008,12,04,07,17,0.00
2008,12,04,07,18,0.00
2008,12,04,07,19,0.00
2008,12,04,07,20,0.00
2008,12,04,07,21,0.00
2008,12,04,07,22,0.00
2008,12,04,07,23,0.00
2008,12,04,07,24,0.00
2008,12,04,07,25,0.00
2008,12,04,07,26,0.00
2008,12,04,07,27,0.00
2008,12,04,07,28,0.00
2008,12,04,07,29,0.00
2008,12,04,07,30,0.00
2008,12,04,07,31,0.00
2008,12,04,07,32,0.00
2008,12,04,07,33,0.00
2008,12,04,07,34,0.00
2008,12,04,07,35,0.00
2008,12,04,07,36,0.00
2008,12,04,07,37,0.00
2008,12,04,07,38,0.00
2008,12,04,07,39,0.00
2008,12,04,07,40,0.00
2008,12,04,07,41,0.00
2008,12,04,07,42,0.00
2008,12,04,07,43,0.00
2008,12,04,07,44,0.00
2008,12,04,07,45,0.00
2008,12,04,07,46,0.00
2008,12,04,07,47,0.00
2008,12,04,07,48,0.00
2008,12,04,07,49,0.00
2008,12,04,07,50,0.00
2008,12,04,07,51,0.00
2008,12,04,07,52,0.00
2008,12,04,07,53,0.00
2008,12,04,07,54,0.00
2008,12,04,07,55,0.00
2008,12,04,07,56,0.00
2008,12,04,07,57,0.00
2008,12,04,07,58,0.00
2008,12,04,07,59,0.00
2008,12,04,08,00,0.00
2008,12,04,08,01,0.00
2008,12,04,08,02,0.00
2008,12,04,08,03,0.00
2008,12,04,08,04,0.00
2008,12,04,08,05,5.00
2008,12,04,08,06,5.00
2008,12,04,08,07,5.00
2008,12,04,08,08,5.00
2008,12,04,08,09,5.00
2008,12,04,08,10,5.00
2008,12,04,08,11,7.00
2008,12,04,08,12,7.00
2008,12,04,08,13,7.00
2008,12,04,08,14,7.00
2008,12,04,08,15,7.00
2008,12,04,08,16,7.00
2008,12,04,08,17,7.00
2008,12,04,08,18,7.00
2008,12,04,08,19,7.00
2008,12,04,08,20,8.30
2008,12,04,08,21,7.80
2008,12,04,08,22,7.00
2008,12,04,08,23,7.00
2008,12,04,08,24,9.00
2008,12,04,08,25,9.00
2008,12,04,08,26,9.00
2008,12,04,08,27,10.20
2008,12,04,08,28,11.00
2008,12,04,08,29,11.10
2008,12,04,08,30,12.00
2008,12,04,08,31,12.60
2008,12,04,08,32,14.00
2008,12,04,08,33,14.00
2008,12,04,08,34,14.00
2008,12,04,08,35,15.80
2008,12,04,08,36,16.00
2008,12,04,08,37,16.60
2008,12,04,08,38,18.00
2008,12,04,08,39,18.00
2008,12,04,08,40,18.00
2008,12,04,08,41,18.10
2008,12,04,08,42,19.00
2008,12,04,08,43,18.60
2008,12,04,08,44,18.00
2008,12,04,08,45,18.60
2008,12,04,08,46,19.00
2008,12,04,08,47,18.80
2008,12,04,08,48,16.00
2008,12,04,08,49,16.00
2008,12,04,08,50,17.00
2008,12,04,08,51,19.00
2008,12,04,08,52,19.00
2008,12,04,08,53,19.20
2008,12,04,08,54,22.00
2008,12,04,08,55,26.30
2008,12,04,08,56,29.10
2008,12,04,08,57,31.40
2008,12,04,08,58,32.00
2008,12,04,08,59,30.10
2008,12,04,09,00,30.60
2008,12,04,09,01,32.00
2008,12,04,09,02,32.00
2008,12,04,09,03,32.00
2008,12,04,09,04,30.00
2008,12,04,09,05,31.90
2008,12,04,09,06,32.00
2008,12,04,09,07,32.00
2008,12,04,09,08,32.80
2008,12,04,09,09,34.40
2008,12,04,09,10,35.00
2008,12,04,09,11,37.30
2008,12,04,09,12,39.00
2008,12,04,09,13,39.50
2008,12,04,09,14,39.40
2008,12,04,09,15,39.00
2008,12,04,09,16,40.00
2008,12,04,09,17,44.00
2008,12,04,09,18,44.70
2008,12,04,09,19,44.10
2008,12,04,09,20,42.00
2008,12,04,09,21,42.00
2008,12,04,09,22,31.10
2008,12,04,09,23,27.50
2008,12,04,09,24,26.00
2008,12,04,09,25,25.50
2008,12,04,09,26,25.60
2008,12,04,09,27,30.80
2008,12,04,09,28,39.40
2008,12,04,09,29,43.40
2008,12,04,09,30,47.70
2008,12,04,09,31,52.10
2008,12,04,09,32,53.00
2008,12,04,09,33,53.00
2008,12,04,09,34,50.70
2008,12,04,09,35,46.60
2008,12,04,09,36,47.70
2008,12,04,09,37,49.00
2008,12,04,09,38,47.60
2008,12,04,09,39,46.20
2008,12,04,09,40,44.30
2008,12,04,09,41,47.20
2008,12,04,09,42,50.60
2008,12,04,09,43,53.00
2008,12,04,09,44,51.60
2008,12,04,09,45,49.00
2008,12,04,09,46,49.60
2008,12,04,09,47,53.20
2008,12,04,09,48,54.90
2008,12,04,09,49,54.30
2008,12,04,09,50,51.60
2008,12,04,09,51,49.00
2008,12,04,09,52,47.60
2008,12,04,09,53,51.00
2008,12,04,09,54,56.20
2008,12,04,09,55,62.60
2008,12,04,09,56,60.80
2008,12,04,09,57,60.00
2008,12,04,09,58,58.80
2008,12,04,09,59,51.70
2008,12,04,10,00,47.70
2008,12,04,10,01,46.00
2008,12,04,10,02,52.30
2008,12,04,10,03,53.10
2008,12,04,10,04,51.60
2008,12,04,10,05,47.10
2008,12,04,10,06,49.00
2008,12,04,10,07,45.80
2008,12,04,10,08,44.00
2008,12,04,10,09,49.30
2008,12,04,10,10,60.80
2008,12,04,10,11,61.30
2008,12,04,10,12,55.30
2008,12,04,10,13,47.60
2008,12,04,10,14,46.00
2008,12,04,10,15,50.80
2008,12,04,10,16,49.20
2008,12,04,10,17,46.40
2008,12,04,10,18,51.70
2008,12,04,10,19,60.50
2008,12,04,10,20,74.00
2008,12,04,10,21,74.90
2008,12,04,10,22,66.10
2008,12,04,10,23,58.00
2008,12,04,10,24,52.10
2008,12,04,10,25,51.00
2008,12,04,10,26,51.00
2008,12,04,10,27,57.00
2008,12,04,10,28,61.80
2008,12,04,10,29,62.10
2008,12,04,10,30,70.90
2008,12,04,10,31,84.60
2008,12,04,10,32,87.60
2008,12,04,10,33,78.70
2008,12,04,10,34,59.80
2008,12,04,10,35,50.30
2008,12,04,10,36,42.80
2008,12,04,10,37,40.00
2008,12,04,10,38,39.00
2008,12,04,10,39,39.00
2008,12,04,10,40,38.30
2008,12,04,10,41,38.40
2008,12,04,10,42,43.20
2008,12,04,10,43,55.00
2008,12,04,10,44,62.50
2008,12,04,10,45,62.80
2008,12,04,10,46,64.80
2008,12,04,10,47,70.00
2008,12,04,10,48,70.00
2008,12,04,10,49,80.30
2008,12,04,10,50,80.80
2008,12,04,10,51,77.40
2008,12,04,10,52,79.00
2008,12,04,10,53,78.00
2008,12,04,10,54,70.00
2008,12,04,10,55,64.40
2008,12,04,10,56,61.60
2008,12,04,10,57,58.00
2008,12,04,10,58,60.30
2008,12,04,10,59,65.80
2008,12,04,11,00,65.60
2008,12,04,11,01,63.30
2008,12,04,11,02,64.30
2008,12,04,11,03,73.80
2008,12,04,11,04,80.60
2008,12,04,11,05,83.60
2008,12,04,11,06,80.50
2008,12,04,11,07,71.70
2008,12,04,11,08,64.70
2008,12,04,11,09,72.50
2008,12,04,11,10,69.00
2008,12,04,11,11,61.40
2008,12,04,11,12,63.70
2008,12,04,11,13,74.30
2008,12,04,11,14,81.00
2008,12,04,11,15,86.60
2008,12,04,11,16,83.50
2008,12,04,11,17,76.70
2008,12,04,11,18,74.50
2008,12,04,11,19,75.80
2008,12,04,11,20,74.00
2008,12,04,11,21,73.30
2008,12,04,11,22,70.60
2008,12,04,11,23,73.60
2008,12,04,11,24,79.80
2008,12,04,11,25,78.50
2008,12,04,11,26,72.00
2008,12,04,11,27,72.00
2008,12,04,11,28,72.00
2008,12,04,11,29,70.10
2008,12,04,11,30,67.00
2008,12,04,11,31,67.00
2008,12,04,11,32,67.00
2008,12,04,11,33,68.10
2008,12,04,11,34,63.60
2008,12,04,11,35,59.40
2008,12,04,11,36,58.00
2008,12,04,11,37,59.50
2008,12,04,11,38,52.80
2008,12,04,11,39,43.00
2008,12,04,11,40,33.80
2008,12,04,11,41,32.70
2008,12,04,11,42,35.00
2008,12,04,11,43,42.70
2008,12,04,11,44,50.10
2008,12,04,11,45,53.40
2008,12,04,11,46,54.00
2008,12,04,11,47,56.70
2008,12,04,11,48,62.20
2008,12,04,11,49,85.20
2008,12,04,11,50,97.10
2008,12,04,11,51,80.20
2008,12,04,11,52,56.80
2008,12,04,11,53,47.00
2008,12,04,11,54,44.00
2008,12,04,11,55,42.30
2008,12,04,11,56,44.00
2008,12,04,11,57,46.10
2008,12,04,11,58,48.20
2008,12,04,11,59,49.00
2008,12,04,12,00,49.00
2008,12,04,12,01,49.00
2008,12,04,12,02,49.00
2008,12,04,12,03,47.60
2008,12,04,12,04,47.00
2008,12,04,12,05,48.50
2008,12,04,12,06,51.60
2008,12,04,12,07,61.20
2008,12,04,12,08,55.50
2008,12,04,12,09,40.30
2008,12,04,12,10,42.80
2008,12,04,12,11,42.80
2008,12,04,12,12,46.20
2008,12,04,12,13,44.50
2008,12,04,12,14,46.00
2008,12,04,12,15,43.00
2008,12,04,12,16,44.80
2008,12,04,12,17,48.60
2008,12,04,12,18,54.80
2008,12,04,12,19,47.60
2008,12,04,12,20,44.20
2008,12,04,12,21,42.10
2008,12,04,12,22,45.40
2008,12,04,12,23,40.10
2008,12,04,12,24,46.10
2008,12,04,12,25,50.70
2008,12,04,12,26,53.00
2008,12,04,12,27,51.30
2008,12,04,12,28,51.00
2008,12,04,12,29,56.00
2008,12,04,12,30,54.00
2008,12,04,12,31,53.20
2008,12,04,12,32,54.90
2008,12,04,12,33,56.00
2008,12,04,12,34,56.00
2008,12,04,12,35,56.00
2008,12,04,12,36,56.00
2008,12,04,12,37,56.00
2008,12,04,12,38,56.00
2008,12,04,12,39,62.30
2008,12,04,12,40,70.70
2008,12,04,12,41,75.60
2008,12,04,12,42,81.20
2008,12,04,12,43,96.50
2008,12,04,12,44,105.30
2008,12,04,12,45,101.20
2008,12,04,12,46,105.00
2008,12,04,12,47,108.60
2008,12,04,12,48,110.40
2008,12,04,12,49,119.00
2008,12,04,12,50,125.70
2008,12,04,12,51,127.10
2008,12,04,12,52,123.00
2008,12,04,12,53,119.00
2008,12,04,12,54,124.10
2008,12,04,12,55,128.00
2008,12,04,12,56,120.10
2008,12,04,12,57,105.00
2008,12,04,12,58,105.00
2008,12,04,12,59,104.90
2008,12,04,13,00,100.50
2008,12,04,13,01,80.30
2008,12,04,13,02,72.00
2008,12,04,13,03,61.60
2008,12,04,13,04,48.80
2008,12,04,13,05,47.60
2008,12,04,13,06,53.20
2008,12,04,13,07,54.80
2008,12,04,13,08,54.90
2008,12,04,13,09,64.50
2008,12,04,13,10,69.00
2008,12,04,13,11,66.60
2008,12,04,13,12,66.10
2008,12,04,13,13,69.40
2008,12,04,13,14,73.30
2008,12,04,13,15,84.40
2008,12,04,13,16,90.00
2008,12,04,13,17,98.00
2008,12,04,13,18,101.90
2008,12,04,13,19,107.00
2008,12,04,13,20,115.30
2008,12,04,13,21,122.80
2008,12,04,13,22,112.10
2008,12,04,13,23,102.70
2008,12,04,13,24,95.20
2008,12,04,13,25,95.20
2008,12,04,13,26,97.10
2008,12,04,13,27,87.20
2008,12,04,13,28,136.90
2008,12,04,13,29,121.00
2008,12,04,13,30,179.40
2008,12,04,13,31,288.00
2008,12,04,13,32,292.20
2008,12,04,13,33,299.50
2008,12,04,13,34,308.10
2008,12,04,13,35,317.80
2008,12,04,13,36,327.00
2008,12,04,13,37,340.00
2008,12,04,13,38,344.30
2008,12,04,13,39,345.00
2008,12,04,13,40,345.00
2008,12,04,13,41,345.00
2008,12,04,13,42,243.30
2008,12,04,13,43,181.60
2008,12,04,13,44,149.60
2008,12,04,13,45,126.00
2008,12,04,13,46,117.90
2008,12,04,13,47,113.80
2008,12,04,13,48,114.70
2008,12,04,13,49,110.10
2008,12,04,13,50,109.00
2008,12,04,13,51,134.50
2008,12,04,13,52,140.10
2008,12,04,13,53,137.00
2008,12,04,13,54,130.70
2008,12,04,13,55,117.80
2008,12,04,13,56,136.40
2008,12,04,13,57,166.60
2008,12,04,13,58,237.00
2008,12,04,13,59,192.70
2008,12,04,14,00,128.40
2008,12,04,14,01,117.10
2008,12,04,14,02,113.70
2008,12,04,14,03,97.20
2008,12,04,14,04,93.50
2008,12,04,14,05,107.00
2008,12,04,14,06,156.10
2008,12,04,14,07,238.20
2008,12,04,14,08,225.20
2008,12,04,14,09,256.00
2008,12,04,14,10,243.00
2008,12,04,14,11,250.20
2008,12,04,14,12,271.80
2008,12,04,14,13,271.40
2008,12,04,14,14,265.00
2008,12,04,14,15,262.90
2008,12,04,14,16,244.50
2008,12,04,14,17,230.20
2008,12,04,14,18,206.00
2008,12,04,14,19,146.00
2008,12,04,14,20,114.40
2008,12,04,14,21,136.80
2008,12,04,14,22,148.00
2008,12,04,14,23,152.00
2008,12,04,14,24,173.90
2008,12,04,14,25,179.00
2008,12,04,14,26,178.00
2008,12,04,14,27,174.80
2008,12,04,14,28,149.20
2008,12,04,14,29,111.40
2008,12,04,14,30,81.90
2008,12,04,14,31,74.90
2008,12,04,14,32,72.40
2008,12,04,14,33,84.20
2008,12,04,14,34,96.50
2008,12,04,14,35,93.10
2008,12,04,14,36,75.40
2008,12,04,14,37,74.00
2008,12,04,14,38,70.60
2008,12,04,14,39,72.30
2008,12,04,14,40,73.40
2008,12,04,14,41,71.10
2008,12,04,14,42,67.40
2008,12,04,14,43,67.00
2008,12,04,14,44,67.10
2008,12,04,14,45,69.80
2008,12,04,14,46,74.70
2008,12,04,14,47,76.00
2008,12,04,14,48,74.10
2008,12,04,14,49,75.60
2008,12,04,14,50,75.90
2008,12,04,14,51,73.00
2008,12,04,14,52,69.30
2008,12,04,14,53,73.50
2008,12,04,14,54,80.90
2008,12,04,14,55,81.00
2008,12,04,14,56,76.10
2008,12,04,14,57,77.40
2008,12,04,14,58,79.00
2008,12,04,14,59,82.10
2008,12,04,15,00,80.40
2008,12,04,15,01,76.60
2008,12,04,15,02,80.10
2008,12,04,15,03,86.50
2008,12,04,15,04,85.10
2008,12,04,15,05,83.00
2008,12,04,15,06,84.90
2008,12,04,15,07,87.70
2008,12,04,15,08,81.00
2008,12,04,15,09,81.00
2008,12,04,15,10,80.10
2008,12,04,15,11,74.80
2008,12,04,15,12,72.60
2008,12,04,15,13,69.00
2008,12,04,15,14,68.40
2008,12,04,15,15,65.80
2008,12,04,15,16,67.90
2008,12,04,15,17,63.90
2008,12,04,15,18,59.50
2008,12,04,15,19,58.00
2008,12,04,15,20,56.00
2008,12,04,15,21,55.10
2008,12,04,15,22,54.00
2008,12,04,15,23,53.40
2008,12,04,15,24,51.50
2008,12,04,15,25,51.00
2008,12,04,15,26,49.00
2008,12,04,15,27,48.30
2008,12,04,15,28,46.50
2008,12,04,15,29,44.20
2008,12,04,15,30,42.50
2008,12,04,15,31,40.00
2008,12,04,15,32,38.40
2008,12,04,15,33,36.00
2008,12,04,15,34,33.60
2008,12,04,15,35,32.30
2008,12,04,15,36,30.40
2008,12,04,15,37,28.20
2008,12,04,15,38,27.60
2008,12,04,15,39,25.60
2008,12,04,15,40,24.00
2008,12,04,15,41,23.00
2008,12,04,15,42,21.40
2008,12,04,15,43,21.00
2008,12,04,15,44,21.00
2008,12,04,15,45,21.00
2008,12,04,15,46,21.00
2008,12,04,15,47,21.00
2008,12,04,15,48,21.00
2008,12,04,15,49,19.00
2008,12,04,15,50,19.00
2008,12,04,15,51,18.60
2008,12,04,15,52,18.00
2008,12,04,15,53,18.00
2008,12,04,15,54,16.30
2008,12,04,15,55,16.00
2008,12,04,15,56,16.00
2008,12,04,15,57,16.00
2008,12,04,15,58,16.00
2008,12,04,15,59,16.00
2008,12,04,16,00,16.00
2008,12,04,16,01,16.00
2008,12,04,16,02,15.10
2008,12,04,16,03,14.00
2008,12,04,16,04,14.00
2008,12,04,16,05,12.50
2008,12,04,16,06,11.90
2008,12,04,16,07,10.60
2008,12,04,16,08,9.00
2008,12,04,16,09,8.10
2008,12,04,16,10,7.00
2008,12,04,16,11,7.00
2008,12,04,16,12,5.00
2008,12,04,16,13,5.00
2008,12,04,16,14,3.00
2008,12,04,16,15,0.00
2008,12,04,16,16,0.00
2008,12,04,16,17,0.00
2008,12,04,16,18,0.00
2008,12,04,16,19,0.00
2008,12,04,16,20,0.00
2008,12,04,16,21,0.00
2008,12,04,16,22,0.00
2008,12,04,16,23,0.00
2008,12,04,16,24,0.00
2008,12,04,16,25,0.00
2008,12,04,16,26,0.00
2008,12,04,16,27,0.00
2008,12,04,16,28,0.00
2008,12,04,16,29,0.00
2008,12,04,16,30,0.00
2008,12,04,16,31,0.00
2008,12,04,16,32,0.00
2008,12,04,16,33,0.00
2008,12,04,16,34,0.00
2008,12,04,16,35,0.00
2008,12,04,16,36,0.00
2008,12,04,16,37,0.00
2008,12,04,16,38,0.00
2008,12,04,16,39,0.00
2008,12,04,16,40,0.00
2008,12,04,16,41,0.00
2008,12,04,16,42,0.00
2008,12,04,16,43,0.00
2008,12,04,16,44,0.00
2008,12,04,16,45,0.00
2008,12,04,16,46,0.00
2008,12,04,16,47,0.00
2008,12,04,16,48,0.00
2008,12,04,16,49,0.00
2008,12,04,16,50,0.00
2008,12,04,16,51,0.00
2008,12,04,16,52,0.00
2008,12,04,16,53,0.00
2008,12,04,16,54,0.00
2008,12,04,16,55,0.00
2008,12,04,16,56,0.00
2008,12,04,16,57,0.00
2008,12,04,16,58,0.00
2008,12,04,16,59,0.00
2008,12,04,17,00,0.00
2008,12,04,17,01,0.00
2008,12,04,17,02,0.00
2008,12,04,17,03,0.00
2008,12,04,17,04,0.00
2008,12,04,17,05,0.00
2008,12,04,17,06,0.00
2008,12,04,17,07,0.00
2008,12,04,17,08,0.00
2008,12,04,17,09,0.00
2008,12,04,17,10,0.00
2008,12,04,17,11,0.00
2008,12,04,17,12,0.00
2008,12,04,17,13,0.00
2008,12,04,17,14,0.00
2008,12,04,17,15,0.00
2008,12,04,17,16,0.00
2008,12,04,17,17,0.00
2008,12,04,17,18,0.00
2008,12,04,17,19,0.00
2008,12,04,17,20,0.00
2008,12,04,17,21,0.00
2008,12,04,17,22,0.00
2008,12,04,17,23,0.00
2008,12,04,17,24,0.00
2008,12,04,17,25,0.00
2008,12,04,17,26,0.00
2008,12,04,17,27,0.00
2008,12,04,17,28,0.00
2008,12,04,17,29,0.00
2008,12,04,17,30,0.00
2008,12,04,17,31,0.00
2008,12,04,17,32,0.00
2008,12,04,17,33,0.00
2008,12,04,17,34,0.00
2008,12,04,17,35,0.00
2008,12,04,17,36,0.00
2008,12,04,17,37,0.00
2008,12,04,17,38,0.00
2008,12,04,17,39,0.00
2008,12,04,17,40,0.00
2008,12,04,17,41,0.00